Regional Weather Roundup
Issued by NWS

Home | Current Version | Previous Version | Text Only | Print | Product List | Glossary Off
Versions: 1 2 3 4 5 6 7 8 9 10 11 12 13 14 15 16 17 18 19 20 21 22 23 24 25 26 27 28 29 30 31 32 33 34 35 36 37 38 39 40 41 42 43 44 45 46 47 48 49 50

064
ASUS43 KMPX 070810
RWRMN
WEATHER ROUNDUP FOR MINNESOTA
NATIONAL WEATHER SERVICE TWIN CITIES/CHANHASSEN MN
200 AM CST WED DEC 07 2016


NOTE: "FAIR" INDICATES FEW OR NO CLOUDS BELOW 12,000 FEET WITH NO
SIGNIFICANT WEATHER AND/OR OBSTRUCTIONS TO VISIBILITY. N/A MEANS
CURRENT SKY AND/OR WEATHER CONDITIONS ARE NOT AVAILABLE.

MNZ060>063-068>070-070900-
   Twin Cities Metro

CITY           SKY/WX    TMP DP  RH WIND       PRES   REMARKS
TWIN CITIES    FLURRIES  18  10  71 W16       29.88R WCI   3
ST PAUL        CLOUDY    19  12  74 W14G21    29.89R WCI   6
CRYSTAL        CLOUDY    19   8  62 W18G25    29.86S WCI   4
BLAINE         FLURRIES  19  12  73 W18G25    29.85R WCI   4
LAKEVILLE      MOCLDY    14  10  85 W14G22    29.90R WCI  -1
EDEN PRAIRIE   FLURRIES  17   9  70 W16G24    29.88S WCI   2
SOUTH ST PAUL  FLURRIES  19  11  71 W10G22    29.89R WCI   7
LAKE ELMO      CLOUDY    21  14  73 W20G25    29.87R WCI   6
$$
MNZ001>005-007-008-013>017-022>024-027-028-070900-
   Northwest Minnesota

CITY           SKY/WX    TMP DP  RH WIND       PRES   REMARKS
BEMIDJI        LGT SNOW  16  13  89 W25       29.64R WCI  -3
HALLOCK        LGT SNOW  19  16  86 NW30G36   29.68R WCI   0
ROSEAU         LGT SNOW  23  18  80 W17G26    29.56R WCI   9
WARROAD        LGT SNOW  25  21  86 W7        29.54R WCI  17
THIEF RVR FALL LGT SNOW  16  13  88 W25G32    29.69R FOG     WCI  -3
CROOKSTON      SNOW      16  14  93 NW36      29.75R VSB 1/2 WCI  -6
FOSSTON        LGT SNOW  14  12  92 W26G32    29.71R WCI  -6
DETROIT LAKES  LGT SNOW  14  12  92 W17G30    29.78R WCI  -3
MOORHEAD       MIX PCPN  12   9  85 W26G32    29.86R WCI  -8
PARK RAPIDS    LGT SNOW  14   8  77 W20       29.71R VSB 1   WCI  -3
$$
MNZ006-009>011-018-025>026-070900-
   North Central Minnesota

CITY           SKY/WX    TMP DP  RH WIND       PRES   REMARKS
BAUDETTE       LGT SNOW  24  21  88 W13       29.50R FOG     WCI  12
FLAG ISLAND    CLOUDY    25  21  86 NW17      29.49R WCI  11
INTL FALLS     SNOW      21  18  88 SW3       29.50R VSB 1/2
WASKISH        LGT SNOW  23  21  93 W22G30    29.56R WCI   8
BIG FORK       LGT SNOW  21  18  86 SW13G21   29.54R WCI   9
LONGVILLE      LGT SNOW  18  12  79 W14G22    29.66R WCI   4
GRAND RAPIDS   LGT SNOW  19  15  84 W13G25    29.62R FOG     WCI   6
CRANE LAKE     LGT SNOW  19  18  93 CALM      29.53R
COOK           LGT SNOW  21  19  93 SW10      29.52R WCI  10
$$
MNZ012-019>021-037-070900-
   Northeast Minnesota

CITY           SKY/WX    TMP DP  RH WIND       PRES   REMARKS
DULUTH         FLURRIES  18  13  80 W22G30    29.59R WCI   1
ELY            LGT SNOW  19  19 100 W7        29.50R WCI  10
HIBBING        FLURRIES  19  15  84 W10G20    29.56R WCI   7
EVELETH        LGT SNOW  20  16  84 SW16G24   29.55R WCI   6
DULUTH HARBOR  FLURRIES  23  18  80 SW21G28   29.65R WCI   8
TWO HARBORS    MOCLDY    23  16  74 W16G22    29.56R WCI  10
SILVER BAY     FLURRIES  21  18  86 SW7G17    29.54R WCI  13
GRAND MARAIS     N/A     27  23  85 W8        29.53R WCI  19
G MARAIS ARPRT LGT SNOW  18  14  86 S3        29.45S
$$
MNZ029>031-032-039>041-046>048-054>057-064-070900-
   West Central Minnesota

CITY           SKY/WX    TMP DP  RH WIND       PRES   REMARKS
FERGUS FALLS   LGT SNOW  12   9  85 W23G30    29.92R WCI  -7
WHEATON        FLURRIES  16  10  79 W21G29    29.94S WCI  -2
MORRIS         CLOUDY    12   7  79 W23G31    29.90R WCI  -7
ALEXANDRIA     LGT SNOW  12   8  84 W21G30    29.84R FOG     WCI  -7
ELBOW LAKE     LGT SNOW  11   8  87 NW22G31   29.89R WCI  -8
WADENA         LGT SNOW  12   9  85 W16G24    29.77R WCI  -4
GLENWOOD       LGT SNOW  12  10  92 W20G32    29.86R WCI  -6
APPLETON       CLEAR     16   7  67 W20       29.95R WCI  -1
BENSON         CLOUDY    12   7  79 NW20G26   29.92R WCI  -6
ORTONVILLE     CLEAR     12   7  79 W18G24    29.95R WCI  -5
MADISON        CLOUDY    16   9  73 W15G23    29.98R WCI   1
WILLMAR        CLOUDY    16  10  79 W21G32    29.92R WCI  -2
$$
MNZ033>034-036-042>043-049>051-058-059-070900-
   Central Minnesota

CITY           SKY/WX    TMP DP  RH WIND       PRES   REMARKS
ST CLOUD       CLOUDY    15   9  76 W17G30    29.84R WCI  -1
PAYNESVILLE    FLURRIES  14  10  83 W17       29.88R WCI  -2
AITKIN         MIX PCPN  19  10  68 W13G21    29.68R WCI   7
PINE RIVER     FLURRIES  16  10  79 W9        29.74R WCI   4
BRAINERD       LGT SNOW  15  10  80 W17       29.74R WCI  -1
STAPLES        LGT SNOW  12   9  85 W21G28    29.77R WCI  -6
LONG PRAIRIE   LGT SNOW  12   9  85 SW18G24   29.82R WCI  -5
LITTLE FALLS   MOCLDY    16   9  73 W14G24    29.81R WCI   1
LITCHFIELD     CLOUDY    16  10  79 W18G33    29.89R WCI  -1
BUFFALO        FLURRIES  18  11  74 W15G26    29.88R WCI   3
MAPLE LAKE     CLOUDY    18  12  78 W20G28    29.87R WCI   1
HUTCHINSON     FLURRIES  16  11  81 W21       29.92R WCI  -1
$$
MNZ037-044-045-052-053-070900-
   East Central Minnesota

CITY           SKY/WX    TMP DP  RH WIND       PRES   REMARKS
PRINCETON      CLOUDY    18  10  73 W15G22    29.82R WCI   3
MORA           FLURRIES  18  10  73 W16G26    29.79R WCI   3
CAMBRIDGE      FLURRIES  19  10  68 W10G23    29.80R WCI   8
RUSH CITY      CLOUDY    18  12  79 W15G23    29.80R WCI   3
MOOSE LAKE     FLURRIES  19  12  73 W14G28    29.67R WCI   6
HINCKLEY       FLURRIES  19  14  79 W17G29    29.75R WCI   4
CLOQUET        FLURRIES  19  10  68 SW17G24   29.62R WCI   4
MCGREGOR       CLOUDY    19  12  73 W17G25    29.68R WCI   4
$$
MNZ071>073-080-081-089-090-097-098-070900-
   Southwest Minnesota

CITY           SKY/WX    TMP DP  RH WIND       PRES   REMARKS
MONTEVIDEO     CLOUDY    14   7  73 NW16G26   29.97R WCI  -2
GRANITE FALLS  CLEAR     14   8  77 W21       29.99R WCI  -4
CANBY          CLOUDY    13   6  74 NW23G30   30.00R WCI  -6
MARSHALL       CLEAR     12   5  73 W24       29.98R WCI  -8
REDWOOD FALLS  CLEAR     13   5  70 W20G28    29.96R WCI  -5
OLIVIA         MOCLDY    16  10  79 W21G26    29.94R WCI  -2
PIPESTONE      CLEAR      9   3  78 W18G28    30.00R WCI -10
WINDOM         CLEAR     12   7  79 W21       29.98R WCI  -6
WORTHINGTON    FLURRIES  10   5  80 W17       30.01S WCI  -8
JACKSON        CLEAR     12   5  73 W24G30    29.99R WCI  -8
TRACY          CLEAR     13   7  79 W15G22    29.98R WCI  -3
SLAYTON        CLEAR      9   4  80 W24G36    29.98R WCI -12
$$
MNZ065>067-074>077-082>085-091>093-070900-
   South Central Minnesota

CITY           SKY/WX    TMP DP  RH WIND       PRES   REMARKS
MANKATO        CLEAR     14   8  77 W21G26    29.95R WCI  -4
NEW ULM        MOCLDY    12   7  79 W16G24    29.97R WCI  -4
ST JAMES       CLEAR     14   9  79 W18       30.01R WCI  -3
FAIRMONT       CLEAR     13   7  77 W23       30.01R WCI  -6
GLENCOE        FLURRIES  16  13  86 W13G21    29.91R WCI   3
FARIBAULT      MOCLDY    16   9  73 W13G25    29.93S WCI   2
OWATONNA       MOCLDY    16   9  73 W15G25    29.94R WCI   1
WASECA         PTCLDY    14  10  85 W18       29.97R WCI  -3
ALBERT LEA     CLOUDY    18  12  79 W13G21    29.97R WCI   4
$$
MNZ078>079-086>088-094>096-070900-
   Southeast Minnesota

CITY           SKY/WX    TMP DP  RH WIND       PRES   REMARKS
ROCHESTER      FLURRIES  15  10  80 W23       29.91R WCI  -3
RED WING       CLOUDY    18   9  68 W17G24    29.89S WCI   2
STANTON        PTCLDY    17  10  75 W13G21    29.92R WCI   3
DODGE CENTER   FLURRIES  14   9  79 W22G28    29.91R WCI  -4
WINONA         MOCLDY    19  12  73 W7G16     29.94R WCI  10
AUSTIN         FLURRIES  14   9  79 W13G21    29.95R WCI   0
PRESTON        LGT SNOW  14   9  80 W16       29.94R WCI  -2
$$
ABBREVIATIONS USED IN REMARKS
   TC - TEMPERATURES IN CELSIUS
  WCI - WIND CHILL INDEX
   HX - HEAT INDEX
  VSB - VISIBILITY
$$




USA.gov is the U.S. government's official web portal to all federal, state and local government web resources and services.